sat.trackr.live / text

‹ back to catalog

STARLINK-4265

NORAD 53011 · 2022-076AB

PAYLOAD ACTIVE UNKNOWN

§ Identity

Operator
Country
US
Launch date
2022-07-07
Launch site
AFETR
Launch vehicle
Mass (kg)
RCS (m²)

Purposes: comms

External: N2YO · Heavens-Above · Gunter

§ Orbital elements

Epoch: 2026-05-25T03:25:02.148672Z

Period
95.44 min
Inclination
53.2153°
Eccentricity
0.0001612
Mean motion
15.08840553 rev/d
Perigee alt
538.6 km
Apogee alt
540.9 km
Semi-major
6,917.9 km
B*
4.8284e-5
RAAN
100.9097°
Arg perigee
73.9505°
Mean anomaly
286.1664°
Rev number
21,452

§ Raw data

STARLINK-42651 53011U 22076AB  26145.14238598  .00000481  00000+0  48284-4 0  99972 53011  53.2153 100.9097 0001612  73.9505 286.1664 15.08840553214522

JSON: /api/v1/satellites/53011 · /tle

For live sub-satellite position, see the globe view (requires WebGL).

§ Visibility from observer

Set your observer location to see the next 7 days of passes ≥ 10°. The values pass through the URL so the page stays shareable.

No JS? Fill the form by hand. The geolocation button needs JavaScript.